1496095200.93,62554,22.5,74158.8,4.81,-0.11,1.13,0,*6E
1496095202.13,62555,22.5,74156.3,4.85,-0.49,1.09,0,*6D
1496095203.34,62556,22.5,74152.3,4.85,-0.81,1.09,0,*6A
1496095204.57,62557,22.5,74160.5,4.85,-1.13,1.29,0,*53
1496095205.8,62558,22.5,74154.8,4.85,-1.43,1.33,0,*52
1496095207.03,62559,22.5,74160.5,4.85,-1.43,1.51,0,*57
1496095208.24,62560,22.5,74160.0,4.85,-1.33,1.67,0,*5F
1496095209.5,62561,22.5,74156.5,4.87,-1.13,1.93,0,*55
1496095210.72,62562,22.5,74158.8,4.85,-0.93,2.05,0,*61
1496095211.93,62563,22.5,74166.0,4.85,-0.69,2.17,0,*66
1496095213.13,62564,22.5,74166.5,4.85,-0.41,2.39,0,*67
1496095214.36,62565,22.5,74162.8,4.87,-0.15,2.39,0,*65
1496095215.59,62566,22.5,74166.5,4.87,0.21,2.61,0,*41
1496095216.81,62567,22.5,74166.5,4.87,0.59,2.65,0,*4B
1496095218.07,62568,22.5,74166.3,4.87,1.09,2.85,0,*7E
1496095219.27,62569,22.5,74164.5,4.85,1.43,2.99,0,*7E
1496095220.49,62570,22.5,74164.8,4.87,1.79,3.23,0,*7D
1496095221.75,62571,22.5,74170.3,4.87,2.05,3.45,0,*74
1496095222.98,62572,22.5,74170.0,4.87,2.35,3.67,0,*74
1496095224.2,62573,22.5,74168.5,4.87,2.65,3.79,0,*7F
1496095225.46,62574,22.5,74170.0,4.87,2.89,4.05,0,*76
1496095226.66,62575,22.5,74166.0,4.85,3.23,4.11,0,*71
1496095227.88,62576,22.5,74166.3,4.87,3.45,4.11,0,*70
1496095229.08,62577,22.5,74168.0,4.87,3.55,4.15,0,*74
1496095230.31,62578,22.5,74168.0,4.87,3.67,4.15,0,*7A
1496095231.5,62579,22.5,74164.8,4.89,3.71,4.19,0,*7E
1496095232.68,62580,22.5,74162.8,4.89,3.81,4.07,0,*78
1496095233.88,62581,22.5,74164.3,4.89,3.93,3.97,0,*74
1496095235.06,62582,22.5,74166.0,4.89,3.93,3.81,0,*70
1496095236.25,62583,22.5,74168.5,4.89,3.93,3.53,0,*7E
1496095237.45,62584,22.5,74166.5,4.89,4.01,3.25,0,*74
1496095238.7,62585,22.5,74166.8,4.91,4.01,3.15,0,*7F
1496095239.9,62586,22.5,74170.3,4.89,3.93,2.77,0,*7C
1496095241.13,62587,22.5,74168.3,4.91,3.85,2.47,0,*70
1496095242.35,62588,22.5,74170.0,4.89,3.75,2.09,0,*73
1496095243.61,62589,22.5,74172.8,4.91,3.67,1.85,0,*7F
1496095244.85,62590,22.5,74168.8,4.91,3.45,1.71,0,*7C
1496095246.08,62591,22.5,74172.3,4.91,3.25,1.47,0,*7E
1496095247.27,62592,22.5,74174.0,4.89,2.99,1.37,0,*75
1496095248.5,62593,22.5,74172.0,4.91,2.65,1.17,0,*7C
1496095249.72,62594,22.5,74174.5,4.91,2.31,1.13,0,*7E
1496095250.97,62595,22.5,74174.0,4.91,2.13,1.17,0,*7B
1496095252.22,62596,22.5,74174.3,4.91,2.01,1.51,0,*79
1496095253.44,62597,22.5,74172.0,4.91,2.01,1.83,0,*77
1496095254.7,62598,22.5,74174.3,4.91,1.97,2.13,0,*7E
1496095255.93,62599,22.5,74170.3,4.93,2.01,2.35,0,*75
1496095257.17,62600,22.5,74172.0,4.93,2.01,2.65,0,*73
1496095258.42,62601,22.5,74170.3,4.93,2.09,2.85,0,*74
1496095259.68,62602,22.5,74172.5,4.93,2.43,3.37,0,*71
1496095260.94,62603,22.5,74172.3,4.93,2.59,3.67,0,*7E
1496095262.17,62604,22.5,74172.8,4.93,2.95,4.01,0,*7E
1496095263.38,62605,22.5,74176.0,4.93,3.29,4.19,0,*70
1496095264.61,62606,22.5,74178.0,4.95,3.49,4.31,0,*79
1496095265.81,62607,22.5,74174.5,4.93,3.63,4.23,0,*75
1496095267.02,62608,22.5,74172.8,4.95,3.89,4.31,0,*7B
1496095268.21,62609,22.5,74172.0,4.95,3.89,4.23,0,*79
1496095269.41,62610,22.5,74176.8,4.95,4.05,4.27,0,*76
1496095270.59,62611,22.5,74172.8,4.95,4.11,4.27,0,*72
1496095271.78,62612,22.5,74176.8,4.95,4.11,4.15,0,*70
1496095272.98,62613,22.5,74176.3,4.93,4.19,4.11,0,*7B
1496095274.18,62614,22.5,74174.8,4.95,4.23,4.01,0,*72
1496095275.37,62615,22.5,74176.5,4.95,4.27,3.89,0,*70
1496095276.58,62616,22.5,74178.3,4.95,4.27,3.79,0,*7C
1496095277.78,62617,22.5,74172.3,4.93,4.23,3.55,0,*71
1496095279.02,62618,22.5,74176.5,4.93,4.19,3.41,0,*72
1496095280.24,62619,22.5,74178.0,4.95,4.15,3.41,0,*79
1496095281.47,62620,22.5,74178.5,4.95,4.05,3.19,0,*7F
1496095282.73,62621,22.5,74178.3,4.93,3.97,3.03,0,*7F
1496095283.93,62622,22.5,74174.3,4.95,3.81,2.85,0,*72
1496095285.17,62623,22.5,74176.8,4.95,3.67,2.73,0,*72
1496095286.35,62624,22.44,74174.5,4.95,3.55,2.61,0,*77
1496095287.56,62625,22.5,74174.3,4.99,3.37,2.65,0,*7A
1496095288.79,62626,22.5,74178.3,4.97,3.23,2.61,0,*76
1496095290.05,62627,22.5,74174.0,4.97,3.07,2.59,0,*7A
1496095291.28,62628,22.5,74176.8,4.97,2.95,2.51,0,*77
1496095292.53,62629,22.5,74174.8,4.97,2.85,2.59,0,*7F
1496095293.76,62630,22.5,74172.3,4.99,2.89,2.55,0,*79
1496095294.99,62631,22.5,74178.5,4.97,2.61,2.59,0,*7C
1496095296.21,62632,22.5,74178.0,4.97,2.61,2.69,0,*7C
1496095297.44,62633,22.5,74176.3,4.97,2.61,2.73,0,*76
1496095298.65,62634,22.5,74172.8,4.99,2.65,2.81,0,*76
1496095299.88,62635,22.5,74176.3,4.97,2.61,2.89,0,*75
1496095301.13,62636,22.5,74172.3,4.97,2.69,3.07,0,*79
1496095302.36,62637,22.5,74178.5,4.99,2.81,3.11,0,*77
1496095303.57,62638,22.5,74176.0,4.99,2.81,3.25,0,*7F
1496095304.8,62639,22.5,74172.8,4.99,2.89,3.33,0,*71
1496095306.02,62640,22.5,74172.5,4.99,2.91,3.33,0,*76
1496095307.25,62641,22.5,74178.3,4.99,3.03,3.33,0,*7D
1496095308.49,62642,22.5,74174.5,4.99,3.15,3.33,0,*79
1496095309.73,62643,22.5,74174.3,4.99,3.15,3.33,0,*78
1496095310.94,62644,22.5,74176.8,4.99,3.25,3.37,0,*78
1496095312.17,62645,22.5,74172.8,4.99,3.33,3.33,0,*7A
1496095313.4,62646,22.5,74174.0,4.99,3.37,3.23,0,*7C
1496095314.63,62647,22.5,74170.8,4.99,3.37,3.11,0,*7C
1496095315.86,62648,22.5,74170.3,4.99,3.45,2.89,0,*76
1496095317.08,62649,22.5,74172.0,5.01,3.55,2.59,0,*7B
1496095318.31,62650,22.44,74168.5,5.01,3.55,2.25,0,*78
1496095319.56,62651,22.44,74168.0,4.97,3.41,1.55,0,*76
1496095320.79,62652,22.5,74172.3,4.99,3.33,1.17,0,*78
1496095322.03,62653,22.5,74174.3,5.01,3.19,0.63,0,*43
1496095323.25,62654,22.5,74174.5,5.01,2.85,0.05,0,*70
1496095324.48,62655,22.5,74174.0,5.01,2.55,-0.37,0,*60
1496095325.69,62656,22.5,74172.0,4.99,2.09,-0.73,0,*6A
1496095326.94,62657,22.5,74172.8,5.01,1.63,-0.97,0,*6E
1496095328.2,62658,22.5,74174.8,5.01,1.21,-1.13,0,*5A
1496095329.43,62659,22.5,74170.0,5.01,0.79,-1.21,0,*66
1496095330.66,62660,22.5,74174.3,5.01,0.51,-1.21,0,*66
1496095331.9,62661,22.5,74172.5,5.01,0.29,-0.97,0,*54
1496095333.12,62662,22.44,74170.5,5.01,-0.07,-0.93,0,*42
1496095334.32,62663,22.5,74174.0,5.01,-0.33,-0.69,0,*71
1496095335.51,62664,22.5,74172.8,5.01,-0.61,-0.45,0,*7F
1496095336.68,62665,22.44,74168.5,5.03,-0.61,0.01,0,*61
1496095337.9,62666,22.5,74176.3,5.01,-0.49,0.41,0,*5E
1496095339.12,62667,22.5,74172.5,5.01,-0.37,0.87,0,*5C
1496095340.35,62668,22.5,74174.5,5.01,-0.11,1.21,0,*6A
1496095341.59,62669,22.44,74174.5,5.01,0.29,1.51,0,*4A
1496095342.8,62670,22.5,74174.0,5.03,0.63,1.71,0,*4C
1496095344.03,62671,22.44,74172.0,5.01,0.79,1.83,0,*49
1496095345.26,62672,22.5,74176.8,5.01,1.01,1.85,0,*72
1496095346.49,62673,22.44,74172.5,5.03,1.09,1.93,0,*7E
1496095347.75,62674,22.5,74176.3,5.01,1.09,1.85,0,*7C
1496095348.97,62675,22.5,74174.5,5.01,1.01,1.97,0,*76
1496095350.17,62676,22.5,74178.5,5.03,1.01,2.21,0,*79
1496095351.38,62677,22.5,74178.5,5.03,1.21,2.35,0,*7F
1496095352.64,62678,22.5,74172.8,5.01,1.37,2.69,0,*7C
1496095353.89,62679,22.44,74176.0,5.01,1.63,2.69,0,*7C
1496095355.12,62680,22.44,74176.0,5.03,1.85,2.69,0,*70
1496095356.33,62681,22.44,74174.3,5.03,1.93,2.65,0,*7A
1496095357.56,62682,22.5,74174.0,5.03,1.93,2.47,0,*79
1496095358.81,62683,22.5,74168.5,5.01,1.93,2.25,0,*7E
1496095360.01,62684,22.5,74172.3,5.03,1.83,2.13,0,*7F
1496095361.22,62685,22.44,74172.0,5.03,1.83,1.85,0,*72
1496095362.42,62686,22.5,74178.3,5.03,1.75,1.71,0,*73
1496095363.64,62687,22.5,74176.0,5.03,1.71,1.47,0,*73
1496095364.87,62688,22.44,74168.5,5.03,1.71,1.29,0,*74
1496095366.09,62689,22.44,74168.0,5.03,1.59,1.09,0,*7D
1496095367.31,62690,22.44,74168.0,5.07,1.63,0.95,0,*4C
1496095368.51,62691,22.5,74170.3,5.03,1.41,0.79,0,*4B
1496095369.74,62692,22.5,74170.5,5.03,1.37,0.63,0,*42
1496095370.97,62693,22.5,74172.3,5.03,1.21,0.29,0,*4A
1496095372.16,62694,22.5,74168.8,5.03,0.97,-0.11,0,*57
1496095373.35,62695,22.5,74170.3,5.03,0.67,-0.69,0,*56
1496095374.56,62696,22.5,74170.5,5.03,0.25,-0.97,0,*52
1496095375.8,62697,22.5,74172.0,5.01,-0.23,-1.21,0,*46
1496095377.01,62698,22.5,74174.3,5.03,-0.57,-1.43,0,*4C
1496095378.23,62699,22.44,74172.3,5.03,-0.73,-1.43,0,*4B
1496095379.43,62700,22.44,74172.0,5.03,-0.61,-1.13,0,*4C
1496095380.61,62701,22.44,74172.8,5.03,-0.11,-0.57,0,*7B
1496095381.8,62702,22.5,74176.8,5.03,0.47,0.01,0,*48
1496095383.0,62703,22.44,74174.3,5.03,0.75,-0.11,0,*54
1496095384.2,62704,22.44,74172.8,5.03,0.51,-0.11,0,*55
1496095385.36,62705,22.44,74172.5,5.07,0.43,0.01,0,*4F
1496095386.57,62706,22.44,74172.0,5.07,0.67,0.71,0,*7D
1496095387.75,62707,22.44,74174.5,5.07,1.05,1.05,0,*7B
1496095388.95,62708,22.44,74174.5,5.07,1.25,1.05,0,*76
1496095390.18,62709,22.5,74176.5,5.07,1.25,1.17,0,*74
1496095391.41,62710,22.44,74174.5,5.07,1.29,1.25,0,*71
1496095392.64,62711,22.5,74176.3,5.07,1.17,1.29,0,*71
1496095393.84,62712,22.44,74174.0,5.07,1.05,1.29,0,*71
1496095395.07,62713,22.44,74172.0,5.03,0.91,1.29,0,*48
1496095396.29,62714,22.44,74172.8,5.07,0.95,1.25,0,*43
1496095397.52,62715,22.5,74176.0,5.09,0.91,1.05,0,*4A
1496095398.72,62716,22.44,74172.8,5.07,0.91,1.01,0,*43
1496095399.92,62717,22.44,74174.0,5.03,0.79,1.01,0,*40
1496095401.11,62718,22.5,74178.8,5.07,0.79,1.01,0,*4B
1496095402.34,62719,22.5,74176.0,5.07,0.79,0.91,0,*72
1496095403.55,62720,22.5,74176.8,5.07,0.59,0.71,0,*74
1496095404.76,62721,22.44,74174.0,5.07,0.33,0.71,0,*79
1496095405.95,62722,22.5,74176.5,5.07,0.17,1.01,0,*4A
1496095407.16,62723,22.44,74170.8,5.07,0.33,1.43,0,*4B
1496095408.4,62724,22.5,74172.3,5.09,0.55,1.55,0,*45
1496095409.59,62725,22.44,74170.3,5.07,0.51,1.41,0,*4B
1496095410.8,62726,22.44,74172.3,5.09,0.43,1.51,0,*44
1496095412.02,62727,22.5,74174.8,5.07,0.51,1.63,0,*49
1496095413.23,62728,22.44,74172.5,5.07,0.67,1.85,0,*4B
1496095414.46,62729,22.44,74174.3,5.07,0.91,2.01,0,*4C
1496095415.7,62730,22.44,74168.5,5.07,1.13,2.25,0,*79
1496095416.95,62731,22.44,74168.5,5.09,1.55,2.25,0,*74
1496095418.15,62732,22.44,74170.3,5.07,1.67,2.27,0,*7A
1496095419.38,62733,22.5,74172.0,5.09,1.79,2.17,0,*79
1496095420.61,62734,22.44,74170.8,5.07,1.67,2.01,0,*78
1496095421.86,62735,22.44,74172.8,5.09,1.55,1.89,0,*75
1496095423.1,62736,22.44,74170.3,5.09,1.43,1.89,0,*71
1496095424.33,62737,22.44,74172.3,5.07,1.33,1.85,0,*75
1496095425.56,62738,22.44,74170.3,5.07,1.29,1.89,0,*7D
1496095426.82,62739,22.44,74170.5,5.09,1.29,1.89,0,*72
1496095428.06,62740,22.44,74170.3,5.09,1.25,1.89,0,*70
1496095429.32,62741,22.44,74172.5,5.09,1.29,1.85,0,*71
1496095430.56,62742,22.44,74170.3,5.09,1.29,1.79,0,*71
1496095431.82,62743,22.44,74172.0,5.09,1.33,1.85,0,*78
1496095433.04,62744,22.44,74168.8,5.09,1.43,1.75,0,*77
1496095434.27,62745,22.44,74170.0,5.07,1.43,1.63,0,*7F
1496095435.51,62746,22.44,74170.0,5.09,1.43,1.55,0,*77
1496095436.74,62747,22.44,74170.8,5.07,1.51,1.51,0,*7F
1496095437.98,62748,22.44,74172.5,5.09,1.43,1.43,0,*7E
1496095439.21,62749,22.44,74172.5,5.09,1.41,1.33,0,*7A
1496095440.46,62750,22.44,74174.5,5.09,1.29,1.29,0,*77
1496095441.72,62751,22.5,74174.3,5.09,1.13,1.25,0,*73
1496095442.94,62752,22.5,74174.0,5.07,0.95,1.25,0,*41
1496095444.18,62753,22.44,74174.0,5.09,0.95,1.13,0,*4B
1496095445.43,62754,22.44,74172.5,5.09,0.71,0.91,0,*7D
1496095446.64,62755,22.44,74168.5,5.11,0.63,0.83,0,*75
1496095447.82,62756,22.44,74174.0,5.11,0.43,0.63,0,*7A
1496095449.03,62757,22.44,74176.3,5.11,0.21,0.37,0,*7E
1496095450.22,62758,22.44,74168.5,5.11,-0.03,0.13,0,*6A
1496095451.42,62759,22.44,74170.5,5.11,-0.23,0.09,0,*62
1496095452.59,62760,22.44,74172.3,5.11,-0.37,-0.03,0,*4A
1496095453.76,62761,22.44,74174.3,5.11,-0.49,-0.03,0,*42
1496095454.93,62762,22.44,74174.5,5.11,-0.61,0.09,0,*6C
1496095456.12,62763,22.44,74168.3,5.11,-0.65,0.33,0,*50
1496095457.35,62764,22.44,74172.0,5.11,-0.85,0.55,0,*59
1496095458.54,62765,22.44,74172.5,5.11,-0.77,0.75,0,*57
1496095459.74,62766,22.44,74172.8,5.11,-0.65,0.87,0,*5A
1496095460.94,62767,22.44,74172.8,5.13,-0.57,1.01,0,*67
1496095462.13,62768,22.44,74174.5,5.11,-0.61,1.17,0,*68
1496095463.33,62769,22.44,74174.0,5.11,-0.53,1.17,0,*68
1496095464.53,62770,22.44,74174.0,5.11,-0.53,1.37,0,*62
1496095465.73,62771,22.44,74174.3,5.11,-0.37,1.59,0,*69
1496095466.93,62772,22.44,74172.8,5.11,-0.15,2.01,0,*64
1496095468.1,62773,22.44,74172.5,5.11,-0.03,2.27,0,*56
1496095469.28,62774,22.44,74174.8,5.11,0.01,2.39,0,*71
1496095470.48,62775,22.44,74174.8,5.11,0.13,2.65,0,*4A
1496095471.66,62776,22.44,74172.3,5.11,0.37,2.91,0,*44
1496095472.88,62777,22.44,74172.5,5.13,0.63,3.29,0,*44
1496095474.08,62778,22.44,74174.5,5.11,1.05,3.37,0,*77
1496095475.27,62779,22.44,74174.5,5.11,1.41,3.53,0,*74
1496095476.48,62780,22.44,74172.3,5.11,1.83,3.49,0,*77
1496095477.68,62781,22.44,74172.8,5.11,2.27,3.45,0,*77
1496095478.9,62782,22.44,74174.3,5.11,2.77,3.23,0,*71
1496095480.08,62783,22.44,74172.0,5.11,2.91,2.99,0,*78
1496095481.34,62784,22.44,74172.3,5.13,3.15,2.89,0,*71
1496095482.53,62785,22.44,74178.3,5.11,3.25,2.55,0,*70
1496095483.73,62786,22.44,74172.8,5.13,3.29,2.31,0,*7F
1496095484.95,62787,22.5,74178.5,5.13,3.29,1.93,0,*75
1496095486.17,62788,22.44,74176.5,5.11,3.23,1.59,0,*74
1496095487.42,62789,22.44,74172.8,5.13,3.03,1.21,0,*7A
1496095488.66,62790,22.44,74168.0,5.13,2.77,0.87,0,*4D
1496095489.91,62791,22.44,74168.5,5.13,2.43,0.75,0,*46
1496095491.15,62792,22.44,74170.0,5.13,2.25,0.67,0,*46
1496095492.4,62793,22.44,74170.3,5.13,1.85,0.79,0,*41
1496095493.59,62794,22.44,74168.0,5.13,1.75,1.01,0,*77
1496095494.79,62795,22.44,74168.5,5.15,1.63,1.41,0,*73
1496095496.01,62796,22.44,74172.3,5.13,1.75,1.71,0,*72
1496095497.23,62797,22.44,74174.3,5.11,1.93,1.93,0,*75
1496095498.45,62798,22.44,74166.0,5.13,1.97,2.31,0,*77
1496095499.67,62799,22.44,74174.5,5.15,2.21,2.77,0,*7C
1496095500.88,62800,22.44,74174.5,5.15,2.35,3.03,0,*74
1496095502.11,62801,22.44,74172.8,5.15,2.81,3.49,0,*74
1496095503.33,62802,22.44,74168.5,5.13,3.15,3.63,0,*75
1496095504.58,62803,22.44,74170.0,5.13,3.49,3.67,0,*79
1496095505.83,62804,22.44,74172.8,5.13,3.75,3.67,0,*71
1496095507.06,62805,22.44,74170.3,5.13,3.75,3.59,0,*7D
1496095508.31,62806,22.44,74172.3,5.13,3.67,3.37,0,*75
1496095509.54,62807,22.44,74172.0,5.17,3.67,3.25,0,*73
1496095510.74,62808,22.44,74172.5,5.17,3.63,3.29,0,*74
1496095511.97,62809,22.44,74170.3,5.15,3.53,3.15,0,*7B
1496095513.18,62810,22.44,74168.0,5.17,3.55,3.19,0,*7B
1496095514.35,62811,22.44,74172.5,5.15,3.55,2.95,0,*7D
1496095515.58,62812,22.44,74170.3,5.15,3.41,2.77,0,*77
1496095516.81,62813,22.44,74168.5,5.17,3.29,2.47,0,*79
1496095518.02,62814,22.44,74172.3,5.15,3.07,2.35,0,*75
1496095519.22,62815,22.44,74170.5,5.17,2.95,2.27,0,*7F
1496095520.44,62816,22.44,74172.5,5.15,2.81,2.21,0,*7D
1496095521.66,62817,22.44,74176.8,5.15,2.69,2.25,0,*7E
1496095522.91,62818,22.44,74172.3,5.17,2.73,2.13,0,*7D
1496095524.14,62819,22.44,74176.3,5.17,2.61,1.85,0,*73
1496095525.36,62820,22.44,74172.8,5.15,2.47,1.59,0,*7E
1496095526.59,62821,22.44,74172.8,5.17,2.27,1.13,0,*75
1496095527.84,62822,22.44,74172.3,5.17,1.85,0.71,0,*48
1496095529.09,62823,22.44,74172.8,5.17,1.55,0.29,0,*49
1496095530.32,62824,22.44,74174.3,5.15,1.13,0.17,0,*43
1496095531.55,62825,22.44,74176.0,5.17,0.91,-0.19,0,*58
1496095532.74,62826,22.44,74178.5,5.15,0.17,-0.37,0,*5B
1496095533.95,62827,22.44,74172.0,5.17,-0.07,-0.41,0,*45
1496095535.15,62828,22.44,74174.5,5.17,-0.19,-0.57,0,*72
1496095536.35,62829,22.44,74174.8,5.17,-0.33,-0.81,0,*70
1496095537.55,62830,22.44,74172.8,5.17,-0.33,-0.77,0,*71
1496095538.78,62831,22.44,74168.8,5.17,-0.29,-1.05,0,*4F
1496095540.02,62832,22.44,74176.8,5.17,-0.81,-2.03,0,*4B
1496095541.26,62833,22.44,74172.0,5.15,-1.83,-2.59,0,*74
1496095542.52,62834,22.44,74172.0,5.17,-2.67,-2.71,0,*72
1496095543.74,62835,22.44,74164.3,5.17,-3.15,-2.95,0,*7D
1496095544.96,62836,22.44,74170.3,5.17,-3.91,-3.03,0,*7C
1496095546.17,62837,22.44,74160.8,5.17,-4.37,-2.79,0,*7A
1496095547.37,62838,22.44,74162.3,5.17,-4.49,-2.43,0,*75
1496095548.62,62839,22.44,74164.3,5.17,-4.33,-1.91,0,*75
1496095549.83,62840,22.44,74156.0,5.15,-4.01,-1.59,0,*7C
1496095551.1,62841,22.44,74162.8,5.17,-3.47,-1.43,0,*71
1496095552.29,62842,22.44,74164.8,5.15,-3.35,-1.59,0,*7E
1496095553.51,62843,22.44,74170.5,5.17,-3.31,-1.51,0,*71
1496095554.72,62844,22.44,74166.0,5.17,-3.31,-1.21,0,*71
1496095555.94,62845,22.44,74162.5,5.17,-2.95,-0.33,0,*4D
1496095557.19,62846,22.44,74166.8,5.17,-1.95,0.71,0,*66
1496095558.44,62847,22.44,74166.0,5.17,-0.93,1.29,0,*6C
1496095559.66,62848,22.44,74164.3,5.17,-0.45,1.43,0,*64
1496095560.85,62849,22.44,74166.0,5.17,0.05,1.79,0,*75
1496095562.09,62850,22.44,74166.8,5.17,0.83,2.25,0,*49
1496095563.34,62851,22.44,74168.5,5.17,1.43,2.39,0,*78
1496095564.6,62852,22.44,74170.3,5.17,2.17,2.85,0,*7E
1496095565.83,62853,22.44,74168.5,5.15,2.59,2.89,0,*7B
1496095567.09,62854,22.44,74170.0,5.17,2.81,2.81,0,*73
1496095568.34,62855,22.44,74166.8,5.17,2.81,2.85,0,*76
1496095569.56,62856,22.44,74168.0,5.17,2.73,2.91,0,*7D
1496095570.78,62857,22.44,74170.5,5.17,2.73,2.99,0,*74
1496095572.03,62858,22.44,74168.8,5.17,2.81,3.07,0,*70
1496095573.25,62859,22.44,74166.3,5.17,2.61,3.11,0,*78
1496095574.5,62860,22.44,74168.5,5.17,2.51,3.23,0,*70
1496095575.75,62861,22.44,74170.5,5.17,2.39,3.23,0,*7F
1496095576.96,62862,22.44,74170.8,5.15,2.43,3.25,0,*75
1496095578.19,62863,22.44,74166.8,5.17,2.61,3.41,0,*74
1496095579.44,62864,22.44,74168.5,5.17,2.85,3.41,0,*79
1496095580.67,62865,22.44,74168.8,5.17,2.95,3.41,0,*79
1496095581.92,62866,22.44,74168.5,5.17,2.85,3.07,0,*79
1496095583.12,62867,22.44,74168.3,5.19,2.73,2.95,0,*75
1496095584.35,62868,22.44,74170.8,5.19,2.59,2.81,0,*77
1496095585.58,62869,22.44,74170.3,5.19,2.39,2.59,0,*75
1496095586.81,62870,22.44,74168.3,5.19,2.25,2.39,0,*76
1496095588.01,62871,22.44,74168.5,5.19,1.97,2.27,0,*72
1496095589.22,62872,22.44,74168.0,5.19,1.85,2.27,0,*72
1496095590.41,62873,22.44,74172.3,5.19,1.89,2.35,0,*7C
1496095591.61,62874,22.44,74172.0,5.19,1.89,2.27,0,*78
1496095592.86,62875,22.44,74172.3,5.21,1.89,2.17,0,*71
1496095594.09,62876,22.44,74168.5,5.19,2.01,2.01,0,*7D
1496095595.28,62877,22.44,74168.8,5.19,1.79,1.89,0,*73
1496095596.48,62878,22.44,74168.0,5.19,1.75,1.89,0,*70
1496095597.73,62879,22.44,74170.3,5.21,1.71,2.05,0,*79
1496095598.98,62880,22.44,74174.0,5.21,1.67,2.17,0,*7B
1496095600.22,62881,22.44,74174.8,5.21,1.67,2.05,0,*79
1496095601.42,62882,22.44,74176.5,5.19,1.43,1.75,0,*73
1496095602.62,62883,22.44,74174.0,5.19,1.25,1.41,0,*75
1496095603.84,62884,22.44,74168.0,5.21,1.09,1.05,0,*77
1496095605.08,62885,22.44,74174.8,5.21,0.95,0.83,0,*7D
1496095606.32,62886,22.44,74170.3,5.21,0.75,0.59,0,*77
1496095607.51,62887,22.44,74172.8,5.19,0.71,0.09,0,*4C
1496095608.73,62888,22.44,74174.3,5.21,0.47,-0.53,0,*5F
1496095609.95,62889,22.44,74174.8,5.21,0.21,-1.71,0,*6F
1496095611.17,62890,22.44,74174.3,5.19,-0.41,-2.55,0,*42
1496095612.38,62891,22.44,74172.8,5.21,-1.17,-3.31,0,*79
1496095613.59,62892,22.44,74170.3,5.23,-1.91,-4.05,0,*76
1496095614.84,62893,22.44,74172.8,5.21,-2.55,-4.77,0,*7B
1496095616.04,62894,22.44,74172.3,5.19,-3.35,-5.51,0,*75
1496095617.24,62895,22.44,74172.3,5.19,-4.21,-6.31,0,*73
1496095618.46,62896,22.44,74178.0,5.19,-4.93,-7.05,0,*7F
1496095619.66,62897,22.44,74176.5,5.19,-6.13,-7.87,0,*7E
1496095620.92,62898,22.44,74170.5,5.21,-7.43,-7.39,0,*7B
1496095622.16,62899,22.44,74172.0,5.19,-8.11,-6.19,0,*7A
1496095623.35,62900,22.44,74168.5,5.19,-7.23,-4.37,0,*7B
1496095624.54,62901,22.44,74174.3,5.19,-6.01,-3.07,0,*7F
1496095625.74,62902,22.44,74174.3,5.19,-5.47,-2.15,0,*7F
1496095626.92,62903,22.44,74174.5,5.19,-4.49,-1.63,0,*73
1496095628.14,62904,22.44,74172.5,5.19,-3.79,-1.43,0,*72
1496095629.38,62905,22.44,74172.0,5.19,-3.67,-1.43,0,*7C
1496095630.6,62906,22.44,74178.5,5.19,-3.59,-0.81,0,*4D
1496095631.79,62907,22.44,74172.8,5.19,-3.19,-0.33,0,*41
1496095632.99,62908,22.44,74172.0,5.19,-2.71,0.09,0,*55
1496095634.19,62909,22.44,74174.3,5.19,-2.39,0.51,0,*65
1496095635.45,62910,22.44,74168.8,5.17,-1.91,0.91,0,*6E
1496095636.68,62911,22.44,74174.8,5.17,-1.33,1.17,0,*58
1496095637.9,62912,22.44,74174.8,5.17,-0.77,1.55,0,*6C
1496095639.15,62913,22.44,74172.5,5.17,-0.23,1.63,0,*69
1496095640.38,62914,22.44,74168.5,5.17,0.33,1.63,0,*42
1496095641.62,62915,22.44,74168.8,5.17,0.71,1.63,0,*45
1496095642.84,62916,22.44,74174.5,5.19,0.95,1.63,0,*42
1496095644.07,62917,22.44,74174.5,5.19,1.25,1.55,0,*7C
1496095645.3,62918,22.44,74172.0,5.19,1.37,1.43,0,*77
1496095646.53,62919,22.44,74172.0,5.19,1.51,1.13,0,*73
1496095647.75,62920,22.44,74172.8,5.19,1.51,0.79,0,*44
1496095648.94,62921,22.44,74170.3,5.19,1.41,0.41,0,*4F
1496095650.16,62922,22.44,74172.8,5.19,1.17,-0.15,0,*63
1496095651.36,62923,22.44,74172.3,5.19,0.95,-0.77,0,*5D
1496095652.56,62924,22.44,74176.3,5.19,0.41,-1.51,0,*66
1496095653.77,62925,22.44,74174.5,5.19,-0.19,-2.03,0,*43
1496095654.95,62926,22.44,74172.3,5.19,-0.69,-2.39,0,*4E
1496095656.19,62927,22.44,74168.8,5.19,-1.09,-2.55,0,*72
1496095657.44,62928,22.44,74174.5,5.21,-1.17,-2.67,0,*78
1496095658.66,62929,22.44,74174.3,5.19,-1.29,-2.71,0,*78
1496095659.86,62930,22.44,74174.8,5.21,-1.25,-2.79,0,*7F
1496095661.07,62931,22.44,74170.0,5.21,-1.75,-3.15,0,*70
1496095662.25,62932,22.44,74172.5,5.19,-2.31,-3.31,0,*7D
1496095663.44,62933,22.44,74170.5,5.19,-2.91,-2.95,0,*79
1496095664.66,62934,22.44,74174.8,5.19,-3.43,-2.39,0,*76
1496095665.9,62935,22.44,74170.3,5.19,-3.63,-1.43,0,*7B
1496095667.11,62936,22.44,74170.0,5.19,-3.47,-0.57,0,*4A
1496095668.3,62937,22.44,74170.0,5.19,-2.95,0.09,0,*53
1496095669.49,62938,22.44,74176.0,5.19,-2.39,0.41,0,*66
1496095670.73,62939,22.44,74174.0,5.19,-1.83,0.55,0,*60
1496095671.93,62940,22.44,74170.0,5.19,-1.33,0.63,0,*60
1496095673.17,62941,22.44,74168.5,5.19,-1.05,0.51,0,*65
1496095674.38,62942,22.44,74166.8,5.19,-1.17,0.29,0,*6A
1496095675.55,62943,22.44,74168.0,5.19,-1.51,0.05,0,*57
1496095676.75,62944,22.44,74172.8,5.19,-1.91,-0.07,0,*73
1496095677.97,62945,22.44,74170.3,5.19,-1.95,-0.15,0,*45
1496095679.17,62946,22.44,74170.3,5.21,-1.75,-0.03,0,*74
1496095680.35,62947,22.44,74168.8,5.19,-1.59,-0.11,0,*43
1496095681.6,62948,22.44,74170.3,5.21,-1.35,0.21,0,*63
1496095682.82,62949,22.44,74168.5,5.19,-0.93,0.63,0,*52
1496095684.02,62950,22.44,74164.5,5.19,-0.45,0.63,0,*51
1496095685.24,62951,22.44,74170.0,5.21,-0.41,0.47,0,*59
1496095686.44,62952,22.44,74164.5,5.19,-0.41,0.63,0,*57
1496095687.64,62953,22.44,74170.3,5.19,-0.33,0.79,0,*58
1496095688.84,62954,22.44,74170.0,5.19,-0.15,1.17,0,*62
1496095690.05,62955,22.44,74174.3,5.19,0.21,1.51,0,*4B
1496095691.24,62956,22.44,74172.5,5.19,0.43,1.63,0,*4D
1496095692.46,62957,22.44,74174.3,5.19,0.55,1.63,0,*4B
1496095693.68,62958,22.44,74174.8,5.21,0.87,1.83,0,*4E
1496095694.91,62959,22.44,74172.5,5.21,1.17,1.83,0,*77
1496095696.17,62960,22.44,74164.0,5.17,1.17,1.67,0,*72
1496095697.39,62961,22.44,74158.8,5.19,1.29,1.43,0,*76
1496095698.59,62962,22.44,74156.3,5.21,1.05,1.05,0,*72
1496095699.83,62963,22.44,74164.5,5.21,0.87,0.67,0,*7D
1496095701.06,62964,22.44,74160.8,5.21,0.55,0.33,0,*74
1496095702.28,62965,22.44,74160.3,5.19,0.29,0.21,0,*76
1496095703.47,62966,22.44,74166.8,5.19,0.29,-0.03,0,*68
1496095704.67,62967,22.44,74164.3,5.19,0.29,-0.45,0,*5B
1496095705.89,62968,22.44,74168.0,5.19,0.37,-1.09,0,*62
1496095707.11,62969,22.44,74164.8,5.21,0.47,-1.79,0,*68
1496095708.36,62970,22.44,74172.3,5.21,0.25,-2.67,0,*68
1496095709.54,62971,22.44,74168.3,5.19,-0.03,-3.79,0,*75
1496095710.75,62972,22.38,74170.3,5.19,-0.57,-5.03,0,*4C
1496095711.97,62973,22.44,74168.8,5.19,-1.33,-6.27,0,*7B
1496095713.16,62974,22.44,74170.0,5.19,-2.39,-7.49,0,*7C
1496095714.39,62975,22.44,74168.5,5.19,-3.67,-8.81,0,*7C
1496095715.58,62976,22.44,74164.3,5.19,-5.39,-10.05,0,*47
1496095716.8,62977,22.44,74168.0,5.19,-6.97,-10.85,0,*49
1496095718.06,62978,22.44,74164.3,5.21,-8.81,-11.37,0,*4C
1496095719.28,62979,22.44,74166.5,5.19,-10.75,-11.45,0,*71
1496095720.49,62980,22.44,74170.8,5.19,-12.43,-10.97,0,*7E
1496095721.73,62981,22.38,74170.3,5.19,-13.97,-10.19,0,*71
1496095722.97,62982,22.38,74166.3,5.17,-14.89,-9.11,0,*44
1496095724.21,62983,22.44,74168.5,5.17,-15.43,-7.49,0,*41
1496095725.44,62984,22.44,74176.3,5.19,-15.25,-5.85,0,*4A
1496095726.63,62985,22.44,74182.5,5.15,-14.23,-4.17,0,*4A
1496095727.88,62986,22.44,74170.0,5.15,-12.35,-2.63,0,*4D
1496095729.07,62987,22.44,74162.0,5.15,-10.49,-1.59,0,*4F
1496095730.29,62988,22.38,74160.8,5.15,-8.07,-0.73,0,*4A